QPF
0.00 0.01 0.03 0.04 0.03 0.03 0.02 0.01 0.01 0.01 0.01 0.02 0.02 0.01 0.01 0.01 0.01 0.01 0.00 0.00 0.01 0.01 0.01 0.00 0.00 0.01 0.01 0.01 0.01 0.01 0.01 0.01 0.01 0.01 0.01 0.01 0.01 0.01 0.00 0.00 0.00 0.01 0.01
0.00 0.01 0.03 0.04 0.04 0.03 0.02 0.01 0.01 0.01 0.01 0.02 0.02 0.02 0.01 0.01 0.01 0.01 0.01 0.01 0.01 0.02 0.01 0.01 0.01 0.01 0.01 0.01 0.01 0.01 0.00 0.00 0.00 0.00 0.00 0.00 0.00 0.01 0.00 0.00 0.00 0.01 0.01
0.01 0.01 0.02 0.04 0.04 0.03 0.03 0.02 0.02 0.01 0.01 0.02 0.02 0.02 0.01 0.01 0.01 0.01 0.01 0.01 0.01 0.02 0.02 0.01 0.01 0.01 0.01 0.00 0.00 0.00 0.00 0.00 0.00 0.00 0.00 0.00 0.00 0.00 0.01 0.01 0.01 0.01 0.01
0.01 0.02 0.02 0.03 0.04 0.03 0.03 0.02 0.02 0.01 0.01 0.01 0.02 0.02 0.01 0.01 0.01 0.01 0.01 0.01 0.01 0.01 0.01 0.01 0.01 0.01 0.01 0.00 0.00 0.00 0.00 0.00 0.00 0.00 0.00 0.00 0.00 0.00 0.01 0.01 0.01 0.01 0.01
0.01 0.02 0.02 0.02 0.04 0.03 0.03 0.02 0.02 0.01 0.01 0.01 0.01 0.02 0.01 0.01 0.01 0.01 0.00 0.01 0.01 0.01 0.01 0.01 0.01 0.01 0.01 0.01 0.01 0.00 0.01 0.00 0.00 0.00 0.00 0.00 0.00 0.00 0.01 0.01 0.01 0.01 0.01
0.02 0.03 0.03 0.03 0.03 0.03 0.03 0.02 0.02 0.01 0.01 0.01 0.01 0.01 0.01 0.01 0.00 0.00 0.00 0.00 0.00 0.01 0.01 0.00 0.00 0.00 0.00 0.00 0.01 0.01 0.01 0.01 0.00 0.00 0.00 0.00 0.00 0.00 0.00 0.01 0.01 0.01 0.01
0.02 0.03 0.04 0.04 0.03 0.03 0.03 0.03 0.02 0.01 0.01 0.01 0.01 0.01 0.01 0.01 0.00 0.01 0.00 0.00 0.00 0.00 0.01 0.01 0.00 0.00 0.00 0.00 0.01 0.01 0.01 0.01 0.00 0.00 0.00 0.00 0.00 0.00 0.00 0.01 0.01 0.01 0.01
0.03 0.03 0.04 0.05 0.04 0.03 0.03 0.04 0.03 0.02 0.02 0.01 0.01 0.01 0.01 0.01 0.00 0.00 0.00 0.00 0.00 0.00 0.00 0.00 0.01 0.00 0.00 0.00 0.00 0.01 0.01 0.00 0.00 0.00 0.00 0.00 0.00 0.01 0.01 0.01 0.01 0.01 0.01
0.03 0.03 0.04 0.05 0.05 0.04 0.03 0.04 0.04 0.03 0.02 0.01 0.01 0.02 0.01 0.01 0.00 0.00 0.00 0.00 0.00 0.00 0.00 0.00 0.00 0.00 0.00 0.00 0.00 0.00 0.00 0.00 0.00 0.00 0.00 0.00 0.00 0.01 0.01 0.01 0.01 0.01 0.01
0.04 0.03 0.04 0.04 0.05 0.04 0.03 0.03 0.03 0.04 0.03 0.02 0.01 0.02 0.02 0.01 0.00 0.00 0.00 0.00 0.00 0.00 0.00 0.00 0.00 0.00 0.00 0.00 0.00 0.00 0.00 0.00 0.00 0.00 0.00 0.01 0.01 0.01 0.02 0.02 0.02 0.03 0.02
0.05 0.05 0.05 0.05 0.05 0.05 0.04 0.03 0.03 0.03 0.03 0.03 0.01 0.01 0.02 0.02 0.01 0.00 0.00 0.00 0.00 0.00 0.00 0.00 0.00 0.00 0.00 0.00 0.00 0.00 0.00 0.00 0.00 0.00 0.00 0.00 0.00 0.01 0.02 0.02 0.02 0.02 0.03
0.05 0.04 0.04 0.05 0.08 0.07 0.05 0.04 0.03 0.03 0.03 0.03 0.02 0.01 0.02 0.02 0.01 0.00 0.00 0.00 0.00 0.00 0.00 0.01 0.01 0.01 0.00 0.00 0.00 0.00 0.00 0.00 0.00 0.00 0.00 0.00 0.00 0.01 0.02 0.02 0.02 0.02 0.02
0.06 0.05 0.04 0.04 0.07 0.09 0.08 0.06 0.05 0.03 0.03 0.04 0.03 0.02 0.02 0.02 0.02 0.01 0.00 0.00 0.00 0.00 0.00 0.00 0.00 0.00 0.00 0.00 0.00 0.00 0.00 0.00 0.00 0.00 0.00 0.00 0.00 0.01 0.02 0.03 0.03 0.03 0.03
0.08 0.06 0.06 0.05 0.04 0.07 0.09 0.08 0.07 0.05 0.04 0.04 0.05 0.04 0.03 0.03 0.02 0.01 0.00 0.00 0.00 0.00 0.00 0.00 0.00 0.00 0.00 0.00 0.00 0.00 0.00 0.00 0.00 0.00 0.00 0.00 0.00 0.00 0.01 0.02 0.03 0.04 0.04
0.09 0.09 0.07 0.06 0.05 0.05 0.06 0.08 0.08 0.07 0.05 0.03 0.05 0.05 0.03 0.03 0.02 0.01 0.01 0.00 0.00 0.00 0.00 0.00 0.00 0.00 0.00 0.00 0.00 0.00 0.00 0.00 0.00 0.00 0.00 0.00 0.00 0.00 0.00 0.01 0.02 0.03 0.04
0.09 0.10 0.09 0.08 0.07 0.06 0.05 0.06 0.08 0.07 0.05 0.03 0.03 0.05 0.05 0.03 0.03 0.02 0.01 0.00 0.00 0.00 0.00 0.00 0.00 0.00 0.00 0.00 0.00 0.00 0.00 0.00 0.00 0.00 0.00 0.00 0.00 0.00 0.00 0.01 0.01 0.03 0.04
0.08 0.09 0.09 0.08 0.07 0.05 0.04 0.05 0.07 0.11 0.08 0.05 0.03 0.03 0.05 0.06 0.05 0.04 0.02 0.01 0.00 0.00 0.00 0.00 0.00 0.00 0.00 0.00 0.00 0.00 0.00 0.00 0.00 0.00 0.00 0.00 0.00 0.00 0.00 0.01 0.01 0.02 0.03
0.08 0.07 0.07 0.07 0.06 0.04 0.04 0.04 0.04 0.08 0.13 0.09 0.05 0.03 0.03 0.07 0.08 0.06 0.05 0.03 0.02 0.01 0.00 0.00 0.00 0.00 0.00 0.00 0.00 0.00 0.00 0.00 0.00 0.00 0.00 0.00 0.00 0.00 0.00 0.01 0.01 0.01 0.01
0.08 0.08 0.05 0.05 0.05 0.04 0.03 0.03 0.03 0.05 0.09 0.13 0.12 0.07 0.03 0.04 0.07 0.07 0.05 0.05 0.03 0.01 0.01 0.00 0.00 0.00 0.00 0.00 0.00 0.00 0.00 0.00 0.00 0.00 0.00 0.00 0.00 0.00 0.00 0.00 0.00 0.00 0.01
0.04 0.05 0.04 0.03 0.02 0.02 0.02 0.02 0.03 0.04 0.05 0.06 0.12 0.14 0.07 0.04 0.05 0.07 0.07 0.06 0.04 0.02 0.01 0.01 0.00 0.00 0.00 0.00 0.00 0.01 0.01 0.00 0.00 0.00 0.00 0.00 0.00 0.00 0.00 0.00 0.00 0.01 0.01
0.02 0.02 0.02 0.01 0.00 0.01 0.02 0.02 0.02 0.02 0.03 0.03 0.05 0.13 0.15 0.09 0.05 0.05 0.07 0.07 0.07 0.04 0.02 0.01 0.01 0.01 0.01 0.01 0.01 0.01 0.01 0.00 0.00 0.00 0.00 0.00 0.00 0.00 0.00 0.00 0.00 0.00 0.00
0.01 0.01 0.01 0.00 0.00 0.00 0.00 0.01 0.02 0.03 0.03 0.03 0.02 0.05 0.12 0.14 0.10 0.05 0.04 0.07 0.08 0.08 0.04 0.02 0.02 0.02 0.02 0.01 0.01 0.01 0.01 0.00 0.00 0.00 0.00 0.00 0.00 0.00 0.00 0.00 0.00 0.00 0.00
0.00 0.00 0.00 0.00 0.00 0.00 0.00 0.00 0.00 0.01 0.02 0.03 0.03 0.03 0.06 0.10 0.12 0.09 0.04 0.04 0.06 0.08 0.07 0.05 0.03 0.03 0.03 0.02 0.02 0.02 0.02 0.01 0.00 0.00 0.00 0.00 0.00 0.00 0.00 0.00 0.00 0.00 0.00
0.00 0.00 0.00 0.00 0.00 0.00 0.00 0.00 0.00 0.00 0.01 0.02 0.03 0.03 0.03 0.05 0.07 0.08 0.07 0.04 0.04 0.05 0.06 0.06 0.05 0.04 0.03 0.03 0.03 0.02 0.02 0.02 0.02 0.01 0.01 0.00 0.00 0.00 0.00 0.00 0.00 0.00 0.00
0.00 0.00 0.00 0.00 0.00 0.00 0.00 0.00 0.00 0.00 0.00 0.01 0.02 0.02 0.03 0.03 0.03 0.04 0.05 0.05 0.04 0.04 0.04 0.04 0.04 0.04 0.03 0.03 0.03 0.03 0.03 0.02 0.03 0.02 0.02 0.01 0.01 0.00 0.00 0.00 0.00 0.00 0.00
0.00 0.00 0.00 0.00 0.00 0.00 0.00 0.00 0.00 0.00 0.00 0.00 0.00 0.01 0.02 0.02 0.02 0.02 0.03 0.03 0.03 0.04 0.03 0.02 0.03 0.03 0.03 0.03 0.03 0.02 0.02 0.02 0.04 0.03 0.02 0.01 0.01 0.00 0.00 0.00 0.00 0.00 0.00
MSLP
1015.96 1015.68 1015.55 1015.58 1015.74 1015.99 1016.27 1016.53 1016.73 1016.86 1016.92 1016.96 1016.99 1017.05 1017.15 1017.29 1017.43 1017.55 1017.63 1017.65 1017.62 1017.55 1017.48 1017.44 1017.43 1017.48 1017.56 1017.67 1017.76 1017.83 1017.86 1017.85 1017.81 1017.75 1017.68 1017.63 1017.58 1017.54 1017.49 1017.44 1017.38 1017.31 1017.24
1015.74 1015.52 1015.44 1015.52 1015.71 1015.99 1016.28 1016.55 1016.75 1016.89 1016.97 1017.03 1017.10 1017.20 1017.34 1017.50 1017.66 1017.80 1017.88 1017.90 1017.86 1017.79 1017.72 1017.66 1017.64 1017.67 1017.74 1017.81 1017.89 1017.93 1017.95 1017.93 1017.89 1017.84 1017.78 1017.73 1017.69 1017.64 1017.58 1017.51 1017.44 1017.36 1017.29
1015.46 1015.30 1015.28 1015.41 1015.66 1015.98 1016.30 1016.59 1016.81 1016.96 1017.07 1017.15 1017.24 1017.36 1017.52 1017.69 1017.85 1017.98 1018.04 1018.05 1017.99 1017.91 1017.83 1017.76 1017.73 1017.75 1017.79 1017.85 1017.90 1017.94 1017.94 1017.93 1017.90 1017.86 1017.82 1017.79 1017.74 1017.69 1017.62 1017.54 1017.45 1017.37 1017.30
1015.21 1015.12 1015.17 1015.36 1015.66 1016.02 1016.38 1016.69 1016.93 1017.10 1017.21 1017.31 1017.41 1017.53 1017.67 1017.83 1017.96 1018.05 1018.09 1018.06 1017.99 1017.90 1017.81 1017.74 1017.70 1017.71 1017.74 1017.78 1017.82 1017.85 1017.87 1017.87 1017.86 1017.84 1017.82 1017.80 1017.76 1017.70 1017.62 1017.53 1017.43 1017.35 1017.29
1015.10 1015.07 1015.18 1015.44 1015.78 1016.17 1016.54 1016.86 1017.11 1017.28 1017.39 1017.48 1017.57 1017.68 1017.79 1017.90 1017.99 1018.04 1018.04 1017.98 1017.90 1017.79 1017.70 1017.63 1017.59 1017.59 1017.62 1017.65 1017.69 1017.72 1017.74 1017.76 1017.77 1017.78 1017.79 1017.77 1017.74 1017.67 1017.58 1017.48 1017.38 1017.30 1017.25
1015.19 1015.23 1015.40 1015.69 1016.06 1016.45 1016.82 1017.12 1017.34 1017.50 1017.59 1017.67 1017.73 1017.81 1017.88 1017.95 1017.99 1018.00 1017.95 1017.87 1017.77 1017.66 1017.57 1017.51 1017.47 1017.47 1017.48 1017.51 1017.54 1017.57 1017.60 1017.63 1017.67 1017.70 1017.72 1017.71 1017.68 1017.61 1017.51 1017.39 1017.28 1017.20 1017.16
1015.52 1015.61 1015.82 1016.13 1016.50 1016.86 1017.18 1017.44 1017.62 1017.73 1017.80 1017.85 1017.89 1017.94 1017.98 1018.01 1018.01 1017.98 1017.91 1017.81 1017.70 1017.59 1017.50 1017.44 1017.40 1017.39 1017.39 1017.40 1017.41 1017.43 1017.46 1017.49 1017.54 1017.58 1017.61 1017.60 1017.56 1017.48 1017.37 1017.24 1017.13 1017.04 1017.00
1016.05 1016.19 1016.43 1016.73 1017.05 1017.35 1017.61 1017.79 1017.91 1017.98 1018.02 1018.04 1018.07 1018.11 1018.13 1018.14 1018.12 1018.07 1017.97 1017.86 1017.74 1017.63 1017.54 1017.48 1017.43 1017.40 1017.38 1017.36 1017.34 1017.33 1017.34 1017.36 1017.39 1017.43 1017.45 1017.44 1017.38 1017.28 1017.15 1017.01 1016.88 1016.79 1016.75
1016.70 1016.88 1017.13 1017.40 1017.66 1017.89 1018.06 1018.16 1018.22 1018.25 1018.26 1018.29 1018.32 1018.36 1018.39 1018.39 1018.36 1018.29 1018.19 1018.06 1017.94 1017.82 1017.72 1017.65 1017.58 1017.52 1017.46 1017.39 1017.33 1017.28 1017.24 1017.23 1017.23 1017.24 1017.24 1017.20 1017.13 1017.00 1016.85 1016.68 1016.54 1016.43 1016.40
1017.37 1017.59 1017.84 1018.08 1018.28 1018.42 1018.51 1018.54 1018.54 1018.55 1018.56 1018.60 1018.66 1018.72 1018.77 1018.78 1018.75 1018.66 1018.54 1018.40 1018.26 1018.13 1018.02 1017.91 1017.82 1017.72 1017.62 1017.50 1017.38 1017.27 1017.18 1017.11 1017.07 1017.04 1017.00 1016.93 1016.81 1016.66 1016.47 1016.28 1016.11 1015.99 1015.94
1017.97 1018.24 1018.49 1018.70 1018.85 1018.92 1018.94 1018.92 1018.90 1018.90 1018.93 1019.01 1019.10 1019.20 1019.26 1019.28 1019.24 1019.14 1019.00 1018.84 1018.67 1018.52 1018.38 1018.25 1018.12 1017.98 1017.83 1017.65 1017.47 1017.30 1017.15 1017.03 1016.93 1016.85 1016.76 1016.64 1016.49 1016.30 1016.07 1015.85 1015.65 1015.50 1015.43
1018.47 1018.78 1019.05 1019.24 1019.35 1019.38 1019.36 1019.31 1019.29 1019.31 1019.38 1019.49 1019.63 1019.75 1019.84 1019.86 1019.80 1019.68 1019.50 1019.31 1019.11 1018.92 1018.76 1018.60 1018.44 1018.26 1018.06 1017.84 1017.61 1017.39 1017.18 1016.99 1016.84 1016.70 1016.56 1016.40 1016.21 1015.97 1015.71 1015.45 1015.21 1015.04 1014.93
1018.86 1019.22 1019.50 1019.69 1019.78 1019.79 1019.76 1019.72 1019.72 1019.77 1019.88 1020.03 1020.20 1020.35 1020.43 1020.43 1020.35 1020.20 1019.99 1019.75 1019.52 1019.31 1019.11 1018.93 1018.75 1018.54 1018.31 1018.06 1017.79 1017.51 1017.26 1017.03 1016.83 1016.64 1016.46 1016.26 1016.03 1015.76 1015.47 1015.17 1014.89 1014.67 1014.53
1019.17 1019.57 1019.88 1020.07 1020.16 1020.18 1020.15 1020.14 1020.17 1020.25 1020.40 1020.58 1020.77 1020.91 1020.98 1020.96 1020.84 1020.64 1020.40 1020.13 1019.87 1019.63 1019.42 1019.23 1019.03 1018.81 1018.56 1018.28 1017.99 1017.69 1017.40 1017.14 1016.91 1016.70 1016.49 1016.27 1016.01 1015.72 1015.41 1015.08 1014.77 1014.50 1014.31
1019.46 1019.88 1020.20 1020.40 1020.50 1020.53 1020.53 1020.55 1020.61 1020.72 1020.89 1021.08 1021.26 1021.39 1021.43 1021.37 1021.22 1020.99 1020.71 1020.43 1020.15 1019.91 1019.69 1019.49 1019.28 1019.06 1018.80 1018.52 1018.21 1017.90 1017.61 1017.34 1017.09 1016.88 1016.66 1016.44 1016.18 1015.89 1015.57 1015.22 1014.88 1014.58 1014.34
1019.77 1020.18 1020.49 1020.69 1020.80 1020.85 1020.87 1020.92 1021.00 1021.14 1021.31 1021.49 1021.65 1021.74 1021.74 1021.65 1021.47 1021.22 1020.94 1020.65 1020.38 1020.14 1019.93 1019.73 1019.52 1019.29 1019.03 1018.75 1018.44 1018.14 1017.85 1017.59 1017.36 1017.16 1016.97 1016.77 1016.54 1016.27 1015.96 1015.62 1015.27 1014.94 1014.65
1020.10 1020.48 1020.77 1020.95 1021.06 1021.12 1021.17 1021.23 1021.33 1021.47 1021.63 1021.79 1021.91 1021.96 1021.93 1021.82 1021.62 1021.38 1021.11 1020.84 1020.59 1020.37 1020.17 1019.97 1019.76 1019.53 1019.26 1018.97 1018.67 1018.37 1018.10 1017.87 1017.68 1017.51 1017.37 1017.22 1017.04 1016.82 1016.55 1016.24 1015.90 1015.55 1015.22
1020.44 1020.76 1021.01 1021.17 1021.27 1021.34 1021.40 1021.48 1021.59 1021.73 1021.87 1021.99 1022.07 1022.09 1022.03 1021.90 1021.72 1021.50 1021.26 1021.03 1020.82 1020.62 1020.43 1020.23 1020.01 1019.76 1019.48 1019.19 1018.89 1018.61 1018.36 1018.17 1018.02 1017.91 1017.83 1017.74 1017.63 1017.48 1017.27 1017.01 1016.70 1016.36 1016.00
1020.73 1021.00 1021.19 1021.33 1021.42 1021.50 1021.58 1021.68 1021.79 1021.92 1022.04 1022.13 1022.18 1022.17 1022.10 1021.97 1021.81 1021.62 1021.43 1021.25 1021.08 1020.90 1020.72 1020.52 1020.28 1020.01 1019.71 1019.40 1019.10 1018.84 1018.62 1018.46 1018.37 1018.32 1018.30 1018.29 1018.26 1018.18 1018.05 1017.85 1017.59 1017.27 1016.91
1020.94 1021.15 1021.31 1021.42 1021.52 1021.61 1021.71 1021.83 1021.96 1022.09 1022.19 1022.26 1022.29 1022.26 1022.18 1022.07 1021.93 1021.79 1021.65 1021.52 1021.38 1021.23 1021.05 1020.83 1020.57 1020.27 1019.95 1019.63 1019.33 1019.08 1018.90 1018.78 1018.73 1018.74 1018.79 1018.84 1018.88 1018.88 1018.82 1018.69 1018.48 1018.20 1017.86
1021.03 1021.20 1021.34 1021.45 1021.57 1021.69 1021.83 1021.98 1022.14 1022.27 1022.38 1022.43 1022.44 1022.40 1022.32 1022.22 1022.12 1022.02 1021.92 1021.83 1021.72 1021.58 1021.40 1021.17 1020.88 1020.56 1020.23 1019.90 1019.61 1019.38 1019.23 1019.15 1019.14 1019.19 1019.28 1019.38 1019.47 1019.53 1019.53 1019.46 1019.31 1019.07 1018.75
1021.00 1021.16 1021.30 1021.44 1021.59 1021.76 1021.95 1022.15 1022.34 1022.50 1022.61 1022.66 1022.66 1022.61 1022.54 1022.45 1022.37 1022.29 1022.23 1022.16 1022.07 1021.94 1021.76 1021.52 1021.23 1020.90 1020.56 1020.25 1019.98 1019.77 1019.65 1019.60 1019.62 1019.69 1019.80 1019.92 1020.03 1020.11 1020.15 1020.12 1020.01 1019.82 1019.54
1020.87 1021.06 1021.23 1021.41 1021.61 1021.84 1022.09 1022.34 1022.57 1022.76 1022.89 1022.95 1022.94 1022.89 1022.81 1022.72 1022.65 1022.59 1022.54 1022.49 1022.41 1022.29 1022.11 1021.88 1021.59 1021.28 1020.97 1020.68 1020.45 1020.28 1020.19 1020.16 1020.19 1020.27 1020.37 1020.48 1020.57 1020.65 1020.68 1020.67 1020.59 1020.43 1020.18
1020.68 1020.92 1021.14 1021.38 1021.63 1021.92 1022.23 1022.53 1022.81 1023.03 1023.17 1023.24 1023.23 1023.17 1023.09 1023.00 1022.93 1022.87 1022.83 1022.78 1022.72 1022.61 1022.44 1022.23 1021.98 1021.70 1021.44 1021.20 1021.02 1020.90 1020.84 1020.83 1020.86 1020.92 1020.99 1021.05 1021.11 1021.14 1021.15 1021.12 1021.04 1020.90 1020.68
1020.49 1020.79 1021.06 1021.35 1021.66 1021.99 1022.35 1022.69 1023.00 1023.24 1023.40 1023.47 1023.46 1023.40 1023.32 1023.23 1023.15 1023.09 1023.06 1023.02 1022.96 1022.87 1022.74 1022.56 1022.36 1022.15 1021.95 1021.78 1021.66 1021.58 1021.56 1021.56 1021.58 1021.61 1021.63 1021.63 1021.62 1021.60 1021.56 1021.50 1021.40 1021.26 1021.05
1020.33 1020.67 1020.99 1021.31 1021.65 1022.02 1022.39 1022.75 1023.07 1023.33 1023.50 1023.57 1023.58 1023.52 1023.44 1023.35 1023.28 1023.23 1023.20 1023.17 1023.13 1023.07 1022.97 1022.85 1022.71 1022.57 1022.44 1022.34 1022.28 1022.26 1022.27 1022.28 1022.29 1022.28 1022.25 1022.19 1022.11 1022.02 1021.92 1021.81 1021.69 1021.53 1021.32
Thickness
5734 5736 5737 5737 5737 5737 5736 5736 5736 5736 5736 5736 5736 5735 5734 5734 5734 5733 5733 5733 5733 5733 5732 5732 5731 5731 5730 5729 5728 5727 5727 5726 5725 5725 5724 5724 5724 5724 5723 5723 5722 5722 5722
5734 5734 5735 5735 5734 5734 5733 5733 5733 5733 5733 5733 5733 5732 5732 5732 5731 5731 5731 5731 5730 5730 5730 5729 5729 5728 5727 5726 5726 5725 5724 5723 5722 5721 5721 5721 5720 5720 5720 5720 5719 5719 5718
5731 5731 5731 5731 5731 5731 5730 5730 5730 5730 5730 5730 5730 5729 5729 5729 5728 5728 5728 5728 5728 5727 5727 5726 5726 5725 5724 5723 5722 5722 5721 5720 5719 5719 5718 5718 5717 5717 5717 5717 5716 5716 5715
5727 5727 5728 5728 5727 5727 5727 5726 5726 5726 5726 5726 5726 5726 5726 5726 5725 5725 5725 5725 5724 5724 5724 5723 5722 5722 5721 5720 5719 5719 5718 5717 5716 5716 5715 5714 5714 5714 5714 5713 5713 5712 5711
5722 5723 5723 5724 5723 5723 5723 5723 5722 5722 5722 5722 5722 5722 5722 5722 5722 5721 5721 5721 5721 5721 5720 5720 5719 5718 5717 5717 5716 5715 5715 5714 5713 5713 5712 5711 5711 5711 5710 5710 5709 5708 5708
5716 5717 5718 5718 5719 5718 5719 5719 5718 5718 5718 5718 5719 5719 5719 5719 5718 5718 5718 5717 5717 5717 5717 5716 5715 5715 5714 5713 5713 5712 5711 5710 5710 5709 5708 5708 5707 5707 5707 5706 5705 5705 5704
5709 5711 5712 5713 5713 5713 5714 5714 5714 5714 5714 5714 5714 5715 5715 5715 5714 5714 5714 5713 5713 5713 5713 5712 5712 5711 5711 5710 5709 5709 5708 5707 5706 5705 5705 5704 5704 5704 5703 5703 5702 5701 5700
5703 5704 5705 5706 5707 5708 5709 5709 5709 5709 5709 5710 5710 5710 5710 5710 5710 5710 5710 5709 5709 5709 5709 5709 5708 5708 5707 5706 5706 5705 5704 5703 5702 5702 5701 5701 5700 5700 5700 5700 5699 5698 5696
5695 5697 5698 5700 5701 5702 5703 5703 5704 5704 5705 5705 5705 5705 5705 5706 5706 5705 5705 5705 5705 5705 5705 5704 5704 5704 5703 5702 5702 5701 5700 5700 5699 5698 5697 5697 5697 5697 5697 5696 5695 5694 5693
5687 5689 5691 5693 5694 5696 5697 5698 5698 5699 5699 5699 5700 5700 5700 5701 5701 5701 5701 5701 5701 5701 5700 5700 5700 5699 5699 5698 5697 5697 5696 5695 5695 5694 5693 5693 5693 5693 5693 5692 5691 5691 5689
5679 5681 5683 5685 5687 5689 5690 5691 5692 5693 5693 5694 5694 5694 5695 5695 5696 5696 5695 5696 5696 5696 5696 5695 5695 5694 5694 5693 5692 5692 5691 5690 5690 5689 5689 5689 5689 5689 5689 5689 5688 5687 5686
5670 5672 5675 5678 5680 5682 5684 5684 5685 5686 5687 5688 5688 5689 5689 5690 5690 5690 5690 5690 5690 5690 5690 5690 5690 5689 5689 5688 5687 5686 5686 5685 5685 5685 5685 5685 5685 5685 5685 5685 5684 5683 5682
5663 5665 5667 5670 5673 5675 5676 5678 5678 5679 5680 5681 5682 5682 5683 5684 5684 5684 5684 5684 5684 5684 5684 5684 5684 5683 5683 5682 5681 5681 5680 5680 5680 5680 5680 5680 5680 5680 5680 5680 5680 5679 5678
5655 5657 5660 5663 5665 5667 5669 5670 5671 5672 5673 5673 5674 5675 5676 5677 5677 5677 5677 5677 5677 5678 5678 5677 5677 5677 5677 5676 5676 5675 5675 5675 5674 5674 5674 5674 5675 5675 5675 5675 5675 5675 5674
5648 5650 5653 5655 5658 5660 5662 5663 5663 5664 5665 5666 5667 5668 5669 5670 5670 5671 5671 5671 5671 5671 5671 5671 5671 5671 5671 5670 5670 5670 5669 5669 5669 5668 5668 5668 5668 5668 5669 5669 5669 5669 5668
5641 5643 5645 5647 5650 5653 5654 5655 5656 5657 5658 5659 5660 5661 5662 5663 5663 5664 5664 5664 5664 5664 5664 5664 5664 5664 5664 5664 5664 5664 5664 5663 5663 5662 5662 5662 5662 5662 5662 5662 5662 5662 5661
5633 5636 5638 5640 5642 5644 5646 5647 5648 5649 5651 5652 5652 5654 5655 5656 5656 5656 5656 5657 5657 5657 5658 5658 5658 5658 5658 5658 5657 5657 5657 5657 5657 5656 5656 5655 5654 5654 5654 5654 5654 5653 5653
5626 5628 5630 5633 5634 5636 5637 5639 5640 5642 5643 5644 5645 5647 5648 5648 5649 5649 5649 5649 5649 5650 5650 5650 5650 5650 5650 5650 5650 5650 5650 5650 5650 5649 5648 5648 5647 5646 5645 5645 5645 5644 5644
5619 5621 5623 5625 5627 5628 5630 5631 5632 5634 5634 5636 5638 5639 5639 5640 5641 5642 5641 5642 5642 5643 5642 5643 5642 5642 5641 5642 5643 5643 5643 5642 5642 5641 5641 5639 5638 5638 5637 5636 5636 5635 5634
5612 5614 5615 5617 5619 5621 5623 5624 5625 5625 5626 5628 5629 5629 5630 5632 5633 5634 5634 5634 5635 5635 5634 5634 5634 5634 5633 5633 5635 5635 5634 5634 5634 5633 5632 5631 5630 5629 5628 5627 5626 5626 5625
5606 5607 5609 5610 5612 5614 5615 5616 5616 5616 5618 5619 5620 5621 5622 5623 5623 5624 5624 5625 5625 5625 5625 5625 5625 5625 5624 5625 5625 5625 5625 5626 5625 5624 5623 5622 5620 5619 5618 5618 5617 5616 5615
5600 5602 5603 5604 5605 5606 5608 5608 5608 5608 5609 5611 5611 5612 5613 5614 5614 5615 5615 5616 5616 5615 5615 5615 5615 5615 5614 5614 5613 5614 5614 5614 5615 5615 5613 5612 5610 5610 5608 5607 5606 5606 5605
5594 5596 5598 5598 5599 5600 5600 5601 5601 5601 5601 5602 5603 5604 5604 5605 5605 5606 5606 5607 5607 5606 5605 5605 5605 5605 5604 5603 5603 5603 5603 5603 5602 5604 5602 5601 5599 5598 5597 5596 5596 5595 5594
5590 5591 5592 5592 5592 5593 5593 5593 5593 5592 5593 5593 5593 5594 5595 5595 5596 5596 5597 5597 5597 5596 5595 5595 5595 5594 5594 5593 5593 5592 5591 5591 5591 5593 5593 5590 5589 5587 5586 5585 5584 5584 5583
5586 5585 5585 5586 5586 5586 5586 5586 5586 5585 5584 5584 5585 5586 5586 5586 5587 5587 5587 5586 5587 5586 5585 5585 5585 5585 5584 5583 5583 5582 5581 5580 5580 5580 5582 5580 5578 5577 5576 5574 5573 5573 5572
5580 5579 5579 5579 5579 5579 5579 5579 5578 5577 5577 5576 5576 5576 5577 5577 5577 5578 5578 5577 5577 5577 5576 5576 5576 5575 5575 5574 5572 5571 5571 5570 5569 5568 5569 5570 5568 5567 5566 5564 5562 5561 5560